User: anonymous
Location: Caltech
(34.1382°N, 118.1253°W)
Time: 19:23:54
(UTC-07:00)
Language:

Cosmos 44 Rocket - Orbit

View from above orbital plane
View from above orbital plane
View from above satellite
View from above satellite

Ground track
Ground track

The orbit data is extracted from the following two-line orbital elements,

1 00877U 64053B   14266.69633398  .00000031  00000-0  31497-4 0  7345
2 00877 065.0792 326.2915 0057692 155.8424 204.5401 14.58895298655976
Epoch (UTC): 23 September 2014 16:42:43
Eccentricity: 0.0057692
inclination: 65.0792°
perigee height: 656 km
apogee height: 737 km
right ascension of ascending node: 326.2915°
argument of perigee: 155.8424°
revolutions per day: 14.58895298
mean anomaly at epoch: 204.5401°
orbit number at epoch: 65597

The dashed part of the orbit path shows where the satellite is in the earth's shadow,  

DLR